CW4141 Weather Reports


Display with metric or nautical units.
time (UTC)temp
F
wind
direction
speed
MPH
gust
MPH
rain 1hr
in
rain 24hr
in
rain mn
in
humidity
%
barometer
mb
20260510070109 60 0 0.0 0.0 0.00 0.00 0.00 78 1016.6
20260510070032 60 136 0.0 0.0 0.00 0.00 0.00 78 1010.6
20260510064602 60 0 0.0 0.0 0.00 0.00 0.00 77 1016.6
20260510064534 60 136 0.0 0.0 0.00 0.00 0.00 77 1010.6
20260510063102 61 0 0.0 0.0 0.00 0.00 0.00 75 1016.5
20260510063031 61 136 0.0 0.0 0.00 0.00 0.00 75 1010.6
20260510061553 61 0 0.0 0.0 0.00 0.00 0.00 74 1016.6
20260510061532 61 136 0.0 0.0 0.00 0.00 0.00 75 1010.6
20260510060054 62 0 0.0 0.0 0.00 0.00 0.00 73 1016.6
20260510060031 62 136 0.0 0.0 0.00 0.00 0.00 74 1010.6
20260510054601 62 0 0.0 0.0 0.00 0.00 0.00 73 1016.5
20260510054531 62 136 0.0 0.0 0.00 0.00 0.00 74 1010.6
20260510053055 62 0 0.0 0.0 0.00 0.00 0.00 72 1016.5
20260510053029 62 136 0.0 0.0 0.00 0.00 0.00 73 1010.6
20260510051600 63 0 0.0 0.0 0.00 0.00 0.00 72 1016.4
20260510051529 63 136 0.0 1.0 0.00 0.00 0.00 73 1010.6
20260510050058 64 0 0.0 1.0 0.00 0.00 0.00 71 1016.5
20260510050029 64 136 0.0 1.0 0.00 0.00 0.00 71 1010.5
20260510044603 64 0 0.0 3.0 0.00 0.00 0.00 69 1016.4
20260510044535 64 136 0.0 3.0 0.00 0.00 0.00 69 1010.4
20260510043104 65 0 0.0 2.0 0.00 0.00 0.00 67 1016.3
20260510043028 65 136 0.0 2.0 0.00 0.00 0.00 68 1010.3
20260510041559 65 0 0.0 1.0 0.00 0.00 0.00 65 1016.1
20260510041526 65 136 0.0 1.0 0.00 0.00 0.00 66 1010.2
20260510040052 66 0 0.0 2.0 0.00 0.00 0.00 63 1016.0
20260510040027 66 136 0.0 2.0 0.00 0.00 0.00 63 1010.1
20260510034557 66 0 0.0 2.0 0.00 0.00 0.00 60 1015.9
20260510034526 66 136 0.0 2.0 0.00 0.00 0.00 61 1010.0
20260510033123 67 0 0.0 2.0 0.00 0.00 0.00 58 1015.8
20260510033025 67 136 0.0 2.0 0.00 0.00 0.00 58 1010.0
20260510031610 68 0 0.0 3.0 0.00 0.00 0.00 55 1015.6
20260510031526 68 136 0.0 3.0 0.00 0.00 0.00 55 1009.6
20260510030034 69 136 0.0 2.0 0.00 0.00 0.00 51 1009.6
20260510024554 71 0 0.0 3.0 0.00 0.00 0.00 44 1015.4
20260510024525 71 134 0.0 3.0 0.00 0.00 0.00 45 1009.4
20260510023100 72 0 0.0 3.0 0.00 0.00 0.00 39 1015.0
20260510023023 72 138 0.0 3.0 0.00 0.00 0.00 39 1009.3
20260510021559 74 0 0.0 5.0 0.00 0.00 0.00 35 1014.9
20260510021527 74 152 0.0 4.0 0.00 0.00 0.00 36 1009.1
20260510020051 74 0 0.0 4.0 0.00 0.00 0.00 36 1014.8
20260510020026 74 161 0.0 3.0 0.00 0.00 0.00 36 1009.0
20260510014602 75 221 1.0 6.0 0.00 0.00 0.00 36 1014.8
20260510014522 75 221 1.0 5.0 0.00 0.00 0.00 36 1009.0
20260510013051 76 0 0.0 5.0 0.00 0.00 0.00 35 1014.7
20260510013023 76 203 0.0 4.0 0.00 0.00 0.00 36 1008.9
20260510011559 78 0 1.0 6.0 0.00 0.00 0.00 35 1014.7
20260510011520 78 219 2.0 6.0 0.00 0.00 0.00 36 1008.9
20260510010019 79 236 1.0 8.0 0.00 0.00 0.00 34 1008.8
20260510004558 79 0 2.0 5.0 0.00 0.00 0.00 29 1014.4
20260510004519 79 136 1.0 5.0 0.00 0.00 0.00 29 1008.6
20260510003101 80 149 2.0 9.0 0.00 0.00 0.00 30 1014.4
20260510003024 80 180 1.0 8.0 0.00 0.00 0.00 31 1008.5
20260510001553 82 133 1.0 8.0 0.00 0.00 0.00 32 1014.4
20260510001517 82 132 1.0 7.0 0.00 0.00 0.00 32 1008.5
20260510000054 83 126 2.0 10.0 0.00 0.00 0.00 32 1014.2
20260510000016 83 188 2.0 9.0 0.00 0.00 0.00 32 1008.4
20260509234606 84 217 2.0 8.0 0.00 0.00 0.00 31 1014.2
20260509234516 84 165 2.0 8.0 0.00 0.00 0.00 31 1008.4
20260509233053 85 0 2.0 9.0 0.00 0.00 0.00 30 1014.3
20260509233022 85 225 2.0 8.0 0.00 0.00 0.00 30 1008.4
20260509231556 86 146 1.0 7.0 0.00 0.00 0.00 28 1014.2
20260509231513 86 225 1.0 8.0 0.00 0.00 0.00 30 1008.3
20260509230052 87 167 0.0 11.0 0.00 0.00 0.00 28 1014.2
20260509230016 87 129 0.0 9.0 0.00 0.00 0.00 28 1008.4
20260509224550 88 0 1.0 11.0 0.00 0.00 0.00 28 1014.3
20260509224513 88 150 1.0 6.0 0.00 0.00 0.00 28 1008.4
20260509223056 88 144 2.0 8.0 0.00 0.00 0.00 27 1014.3
20260509223014 88 142 2.0 8.0 0.00 0.00 0.00 27 1008.4
20260509221552 89 221 1.0 8.0 0.00 0.00 0.00 26 1014.4
20260509221512 89 224 1.0 8.0 0.00 0.00 0.00 27 1008.5
20260509220100 89 0 0.0 6.0 0.00 0.00 0.00 27 1014.6
20260509220010 89 252 0.0 6.0 0.00 0.00 0.00 27 1008.8
20260509214552 89 132 1.0 6.0 0.00 0.00 0.00 25 1014.9
20260509214509 89 208 1.0 6.0 0.00 0.00 0.00 25 1008.9
20260509213050 89 198 1.0 7.0 0.00 0.00 0.00 25 1015.0
20260509213008 89 198 1.0 7.0 0.00 0.00 0.00 24 1009.1
20260509211553 89 0 2.0 9.0 0.00 0.00 0.00 27 1015.2
20260509211506 89 141 2.0 8.0 0.00 0.00 0.00 28 1009.2
20260509210058 89 221 0.0 5.0 0.00 0.00 0.00 29 1015.2
20260509210007 89 223 0.0 7.0 0.00 0.00 0.00 31 1009.4
20260509204600 89 215 2.0 5.0 0.00 0.00 0.00 31 1015.5
20260509204505 89 205 2.0 5.0 0.00 0.00 0.00 31 1009.4
20260509203052 89 196 1.0 6.0 0.00 0.00 0.00 31 1015.6
20260509203004 89 196 1.0 6.0 0.00 0.00 0.00 32 1009.7
20260509201624 88 206 1.0 4.0 0.00 0.00 0.00 32 1009.7
20260509201554 88 0 0.0 5.0 0.00 0.00 0.00 32 1015.7
20260509200103 87 229 1.0 7.0 0.00 0.00 0.00 33 1009.9
20260509200057 87 0 2.0 7.0 0.00 0.00 0.00 31 1015.7
20260509194555 87 214 2.0 6.0 0.00 0.00 0.00 30 1010.0
20260509193111 86 215 1.0 6.0 0.00 0.00 0.00 30 1010.0
20260509193050 86 0 2.0 6.0 0.00 0.00 0.00 30 1015.8
20260509191603 86 191 1.0 5.0 0.00 0.00 0.00 34 1010.2
20260509191601 86 0 1.0 6.0 0.00 0.00 0.00 33 1016.0
20260509190056 85 0 1.0 7.0 0.00 0.00 0.00 35 1016.1
20260509190048 85 184 0.0 6.0 0.00 0.00 0.00 35 1010.3
20260509184550 84 207 0.0 4.0 0.00 0.00 0.00 38 1016.3
20260509184544 84 207 0.0 3.0 0.00 0.00 0.00 38 1010.4
20260509183052 83 222 1.0 6.0 0.00 0.00 0.00 35 1016.3
20260509183044 83 223 2.0 6.0 0.00 0.00 0.00 35 1010.5
20260509181602 82 0 1.0 5.0 0.00 0.00 0.00 35 1016.4
20260509181539 82 145 1.0 5.0 0.00 0.00 0.00 36 1010.6
20260509180059 81 0 0.0 3.0 0.00 0.00 0.00 43 1016.4
20260509180035 81 227 0.0 3.0 0.00 0.00 0.00 44 1010.6
20260509174601 79 228 0.0 0.0 0.00 0.00 0.00 45 1016.5
20260509174529 79 309 0.0 0.0 0.00 0.00 0.00 46 1010.7
20260509173107 78 0 0.0 0.0 0.00 0.00 0.00 47 1016.4
20260509173025 78 309 0.0 0.0 0.00 0.00 0.00 49 1010.7
20260509171603 76 0 0.0 0.0 0.00 0.00 0.00 52 1016.4
20260509171520 76 311 0.0 0.0 0.00 0.00 0.00 53 1010.7
20260509170052 74 0 0.0 0.0 0.00 0.00 0.00 59 1016.5
20260509170017 74 311 0.0 0.0 0.00 0.00 0.00 58 1010.8
20260509164610 72 0 0.0 0.0 0.00 0.00 0.00 61 1016.6
20260509164512 72 311 0.0 0.0 0.00 0.00 0.00 62 1010.9
20260509163048 69 0 0.0 0.0 0.00 0.00 0.00 68 1016.5
20260509163008 69 311 0.0 0.0 0.00 0.00 0.00 69 1010.9
20260509161551 66 0 0.0 0.0 0.00 0.00 0.00 74 1016.5
20260509161503 66 311 0.0 0.0 0.00 0.00 0.00 75 1011.0
20260509160058 63 311 0.0 0.0 0.00 0.00 0.00 83 1011.0
20260509154600 60 0 0.0 2.0 0.00 0.00 0.00 88 1016.6
20260509154553 60 311 0.0 1.0 0.00 0.00 0.00 88 1011.2
20260509153053 58 0 0.0 0.0 0.00 0.00 0.00 89 1016.8
20260509153048 58 311 0.0 0.0 0.00 0.00 0.00 90 1011.2
20260509151555 56 0 0.0 1.0 0.00 0.00 0.00 90 1016.8
20260509151545 56 311 0.0 0.0 0.00 0.00 0.00 91 1011.3
20260509150052 55 0 0.0 2.0 0.00 0.00 0.00 90 1016.9
20260509150045 55 311 0.0 2.0 0.00 0.00 0.00 90 1011.3
20260509144609 54 0 0.0 1.0 0.00 0.00 0.00 90 1016.9
20260509144545 54 311 0.0 1.0 0.00 0.00 0.00 91 1011.3
20260509143054 54 0 0.0 2.0 0.00 0.00 0.00 90 1016.9
20260509143044 54 311 0.0 2.0 0.00 0.00 0.00 90 1011.3
20260509141554 53 311 0.0 2.0 0.00 0.00 0.00 89 1016.9
20260509141542 53 311 0.0 2.0 0.00 0.00 0.00 90 1011.2
20260509140105 52 0 0.0 0.0 0.00 0.00 0.00 88 1016.8
20260509140044 52 313 0.0 0.0 0.00 0.00 0.00 89 1011.1
20260509134556 52 0 0.0 0.0 0.00 0.00 0.00 87 1016.8
20260509134539 52 313 0.0 0.0 0.00 0.00 0.00 87 1010.9
20260509133058 51 0 0.0 0.0 0.00 0.00 0.00 86 1016.7
20260509133036 51 313 0.0 0.0 0.00 0.00 0.00 86 1010.8
20260509131557 51 0 0.0 0.0 0.00 0.00 0.00 85 1016.7
20260509131534 51 55 0.0 0.0 0.00 0.00 0.00 86 1010.7
20260509130106 51 0 0.0 0.0 0.00 0.00 0.00 85 1016.6
20260509130049 51 61 0.0 0.0 0.00 0.00 0.00 85 1010.7
20260509124552 52 0 0.0 0.0 0.00 0.00 0.00 85 1016.5
20260509124537 52 146 0.0 0.0 0.00 0.00 0.00 85 1010.7
20260509123054 52 0 0.0 0.0 0.00 0.00 0.00 85 1016.5
20260509123029 52 140 0.0 0.0 0.00 0.00 0.00 85 1010.6
20260509121604 52 0 0.0 0.0 0.00 0.00 0.00 85 1016.5
20260509121529 52 140 0.0 0.0 0.00 0.00 0.00 85 1010.7
20260509120054 53 0 0.0 0.0 0.00 0.00 0.00 84 1016.5
20260509120032 53 140 0.0 0.0 0.00 0.00 0.00 85 1010.6
20260509114553 53 0 0.0 0.0 0.00 0.00 0.00 84 1016.4
20260509114524 53 140 0.0 0.0 0.00 0.00 0.00 85 1010.7
20260509113057 53 0 0.0 0.0 0.00 0.00 0.00 84 1016.5
20260509113023 53 140 0.0 0.0 0.00 0.00 0.00 85 1010.7
20260509111603 54 0 0.0 0.0 0.00 0.00 0.00 84 1016.5
20260509111522 54 140 0.0 0.0 0.00 0.00 0.00 84 1010.7
20260509110054 54 0 0.0 0.0 0.00 0.00 0.00 84 1016.5
20260509110021 54 140 0.0 0.0 0.00 0.00 0.00 84 1010.7
20260509104551 54 0 0.0 0.0 0.00 0.00 0.00 84 1016.6
20260509104518 54 140 0.0 0.0 0.00 0.00 0.00 84 1010.7
20260509103051 55 0 0.0 0.0 0.00 0.00 0.00 83 1016.7
20260509103018 55 140 0.0 0.0 0.00 0.00 0.00 84 1010.8
20260509101550 55 0 0.0 0.0 0.00 0.00 0.00 84 1016.8
20260509101515 55 140 0.0 0.0 0.00 0.00 0.00 84 1010.8
20260509100052 55 0 0.0 0.0 0.00 0.00 0.00 83 1016.7
20260509100020 55 140 0.0 0.0 0.00 0.00 0.00 83 1010.8
20260509094552 55 0 0.0 0.0 0.00 0.00 0.00 82 1016.7
20260509094512 55 140 0.0 0.0 0.00 0.00 0.00 83 1010.9
20260509093054 56 0 0.0 0.0 0.00 0.00 0.00 82 1016.7
20260509093010 56 140 0.0 0.0 0.00 0.00 0.00 82 1011.1
20260509091554 56 0 0.0 0.0 0.00 0.00 0.00 82 1016.9
20260509091508 56 140 0.0 0.0 0.00 0.00 0.00 82 1011.2
20260509090104 57 0 0.0 0.0 0.00 0.00 0.00 82 1017.1
20260509090008 57 140 0.0 0.0 0.00 0.00 0.00 83 1011.2
20260509084602 57 0 0.0 0.0 0.00 0.00 0.00 82 1017.2
20260509084505 57 140 0.0 0.0 0.00 0.00 0.00 82 1011.3
20260509083057 57 0 0.0 0.0 0.00 0.00 0.00 82 1017.3
20260509083006 57 140 0.0 0.0 0.00 0.00 0.00 82 1011.4
20260509081551 58 0 0.0 0.0 0.00 0.00 0.00 81 1017.4
20260509081504 58 140 0.0 0.0 0.00 0.00 0.00 82 1011.7
20260509080105 58 140 0.0 0.0 0.00 0.00 0.00 82 1011.8
20260509080059 58 0 0.0 0.0 0.00 0.00 0.00 81 1017.6
20260509074556 59 0 0.0 0.0 0.00 0.00 0.00 81 1017.7
20260509073054 59 140 0.0 0.0 0.00 0.00 0.00 81 1011.8
20260509073052 59 0 0.0 0.0 0.00 0.00 0.00 81 1017.8
20260509071556 60 140 0.0 0.0 0.00 0.00 0.00 82 1011.9
20260509071552 60 0 0.0 0.0 0.00 0.00 0.00 81 1017.7